Eielson Air Force Base, AK

11:21 AM AKST on February 08, 2016 (GMT -0900)
Eielson Air Force Base

Weather History for PAEI - February, 2013

Change the Weather History Date:

Tuesday, February 26, 2013

  Actual Average Record
Temperature  
Mean Temperature 1 °F -  
Max Temperature 18 °F 15 °F 43 °F (1975)
Min Temperature -16 °F -7 °F -45 °F (1954)
Degree Days  
Heating Degree Days 64    
Moisture  
Dew Point -8 °F    
Average Humidity 77    
Maximum Humidity 87    
Minimum Humidity 58    
Precipitation  
Precipitation 0.00 in - - ()
Sea Level Pressure  
Sea Level Pressure 29.66 in    
Wind  
Wind Speed 0 mph (NW)    
Max Wind Speed 5 mph    
Max Gust Speed -    
Visibility 10 miles    
Events      
Averages and records for this station are not official NWS values.
T = Trace of Precipitation, MM = Missing Value Source: NWS Daily Summary

Daily Weather History Graph

Daily Weather History Graph

Search for Another Location

Airport or City:

Trip Planner

Search our weather history database for the weather conditions in past years. The results will help you decide how hot, cold, wet, or windy it might be!

Date:

Astronomy

Feb. 26, 2013 Rise Set
Actual Time 8:06 AM AKST 5:57 PM AKST
Civil Twilight 7:16 AM AKST 6:47 PM AKST
Nautical Twilight 6:20 AM AKST 7:43 PM AKST
Astronomical Twilight 5:23 AM AKST 8:41 PM AKST
Moon 8:15 PM AKST (2/26) 7:34 AM AKST (2/26)
Length of Visible Light 11h 30m
Length of Day
9h 51m
Full, 99% of the Moon is Illuminated
Feb 26
Full
Mar 4
Last Quarter
Mar 11
New
Mar 19
First Quarter
Mar 27
Full

Hourly Weather History & Observations

Time (AKST) Temp. Windchill Dew Point Humidity Pressure Visibility Wind Dir Wind Speed Gust Speed Precip Events Conditions
12:55 AM -13.7 °F - -19.1 °F 77% 29.81 in 10.0 mi Calm Calm - N/A   Clear
1:55 AM -13.4 °F - -18.8 °F 77% 29.81 in 10.0 mi Calm Calm - N/A   Clear
2:55 AM -13.2 °F - -18.8 °F 76% 29.80 in 10.0 mi Calm Calm - N/A   Clear
3:55 AM -16.1 °F - -22.0 °F 74% 29.78 in 10.0 mi Calm Calm - N/A   Clear
4:55 AM -16.1 °F - -22.2 °F 74% 29.78 in 10.0 mi Calm Calm - N/A   Clear
5:55 AM -13.4 °F - -18.9 °F 76% 29.77 in 10.0 mi Calm Calm - N/A   Clear
6:55 AM -13.7 °F - -19.1 °F 77% 29.75 in 10.0 mi Calm Calm - N/A   Clear
7:55 AM -14.8 °F - -20.6 °F 75% 29.74 in 10.0 mi Calm Calm - N/A   Clear
8:55 AM -14.1 °F - -19.8 °F 75% 29.73 in 10.0 mi Calm Calm - N/A   Clear
9:55 AM -8.1 °F - -13.4 °F 78% 29.72 in 10.0 mi Calm Calm - N/A   Clear
10:55 AM -4.5 °F - -9.4 °F 80% 29.70 in 10.0 mi Calm Calm - N/A   Clear
11:55 AM 2.3 °F - -2.0 °F 82% 29.68 in 10.0 mi Calm Calm - N/A   Clear
12:55 PM 7.7 °F - 1.2 °F 75% 29.66 in 10.0 mi Calm Calm - N/A   Clear
1:55 PM 13.6 °F 6.0 °F 4.8 °F 68% 29.64 in 10.0 mi North 4.6 mph - N/A   Clear
2:55 PM 18.7 °F - 6.3 °F 58% 29.61 in 10.0 mi Calm Calm - N/A   Clear
3:55 PM 16.3 °F - 8.1 °F 70% 29.58 in 10.0 mi Calm Calm - N/A   Clear
4:55 PM 14.7 °F 7.3 °F 10.2 °F 82% 29.57 in 10.0 mi WNW 4.6 mph - N/A   Clear
5:55 PM 11.7 °F - 8.4 °F 87% 29.56 in 10.0 mi Calm Calm - N/A   Clear
6:55 PM 4.1 °F - 0.5 °F 85% 29.56 in 10.0 mi Calm Calm - N/A   Clear
7:55 PM 3.6 °F - -0.2 °F 84% 29.55 in 10.0 mi Calm Calm - N/A   Clear
8:55 PM 3.0 °F - -0.6 °F 85% 29.53 in 10.0 mi Calm Calm - N/A   Clear
9:55 PM -0.8 °F - -5.4 °F 81% 29.53 in 10.0 mi Calm Calm - N/A   Clear
10:55 PM -3.5 °F - -8.3 °F 80% 29.52 in 10.0 mi Calm Calm - N/A   Clear
11:55 PM -5.1 °F - -9.6 °F 81% 29.51 in 10.0 mi Calm Calm - N/A   Clear